FW1775 Weather Reports


time (UTC)temp
C
wind
direction
speed
KPH
gust
KPH
rain 1hr
cm
rain 24hr
cm
rain mn
cm
humidity
%
barometer
mb
20260506121507 6 223 3.2 4.8 0.00 0.00 0.00 97 974.8
20260506121007 6 183 0.0 1.6 0.00 0.00 0.00 98 974.9
20260506120507 6 207 1.6 1.6 0.00 0.00 0.00 98 974.9
20260506120008 6 189 0.0 1.6 0.00 0.00 0.00 98 974.6
20260506115509 6 234 0.0 1.6 0.00 0.00 0.00 99 974.6
20260506115007 6 148 0.0 1.6 0.00 0.00 0.00 99 974.7
20260506114507 5 191 0.0 0.0 0.00 0.00 0.00 99 974.8
20260506114007 5 180 0.0 0.0 0.00 0.00 0.00 99 974.8
20260506113507 5 222 0.0 0.0 0.00 0.00 0.00 99 974.6
20260506113007 5 225 0.0 0.0 0.00 0.00 0.00 99 974.6
20260506112507 5 211 0.0 0.0 0.00 0.00 0.00 99 974.5
20260506112007 5 208 0.0 0.0 0.00 0.00 0.00 99 974.5
20260506111507 5 225 0.0 0.0 0.00 0.00 0.00 99 974.5
20260506111007 5 202 0.0 0.0 0.00 0.00 0.00 99 974.2
20260506110506 5 202 0.0 0.0 0.00 0.00 0.00 99 974.2
20260506110007 5 167 0.0 0.0 0.00 0.00 0.00 99 974.3
20260506104509 5 180 0.0 0.0 0.00 0.00 0.00 99 974.0
20260506104009 5 180 0.0 0.0 0.00 0.00 0.00 99 974.0
20260506103009 5 180 0.0 0.0 0.00 0.00 0.00 99 974.1
20260506102509 5 161 0.0 0.0 0.00 0.00 0.00 99 974.1
20260506102008 5 180 0.0 0.0 0.00 0.00 0.00 99 974.1
20260506101508 5 202 0.0 0.0 0.00 0.00 0.00 99 974.1
20260506101009 5 180 0.0 0.0 0.00 0.00 0.00 99 974.0
20260506100509 5 180 0.0 0.0 0.00 0.00 0.00 99 974.0
20260506095508 5 180 0.0 0.0 0.00 0.00 0.00 99 974.4
20260506094509 5 180 0.0 0.0 0.00 0.00 0.00 99 974.3
20260506094008 5 180 0.0 0.0 0.00 0.00 0.00 99 974.3
20260506093508 5 180 0.0 0.0 0.00 0.00 0.00 99 974.4
20260506093009 5 158 0.0 0.0 0.00 0.00 0.00 99 974.4
20260506092508 5 180 0.0 0.0 0.00 0.00 0.00 98 974.4
20260506092009 5 180 0.0 0.0 0.00 0.00 0.00 98 974.4
20260506091508 5 180 0.0 0.0 0.00 0.00 0.00 99 974.4
20260506091009 5 180 0.0 0.0 0.00 0.00 0.00 99 974.7
20260506090009 5 180 0.0 0.0 0.00 0.00 0.00 99 974.7
20260506085509 5 180 0.0 0.0 0.00 0.00 0.00 99 974.7
20260506085008 5 126 0.0 0.0 0.00 0.00 0.00 99 974.8
20260506084508 5 202 0.0 0.0 0.00 0.00 0.00 99 974.8
20260506084009 5 149 0.0 0.0 0.00 0.00 0.00 98 974.8
20260506082508 5 180 0.0 0.0 0.00 0.00 0.00 99 975.3
20260506082009 5 158 0.0 0.0 0.00 0.00 0.00 99 975.3
20260506081509 5 202 0.0 0.0 0.00 0.00 0.00 99 975.3
20260506073509 4 180 0.0 0.0 0.00 0.00 0.00 97 974.3
20260506073008 4 202 0.0 0.0 0.00 0.00 0.00 97 974.3
20260506072508 4 202 0.0 0.0 0.00 0.00 0.00 97 974.5
20260506071508 4 172 0.0 0.0 0.00 0.00 0.00 97 974.5
20260506071009 4 158 0.0 0.0 0.00 0.00 0.00 97 974.7
20260506070509 4 140 0.0 0.0 0.00 0.00 0.00 95 974.7
20260506062509 4 180 0.0 0.0 0.00 0.00 0.00 94 974.8
20260506062008 4 180 0.0 0.0 0.00 0.00 0.00 94 974.8
20260506061508 4 180 0.0 0.0 0.00 0.00 0.00 94 974.8
20260506061009 4 180 0.0 0.0 0.00 0.00 0.00 94 975.1
20260506060508 4 180 0.0 0.0 0.00 0.00 0.00 93 975.1
20260506050508 4 180 0.0 0.0 0.00 0.00 0.00 92 975.4
20260506045008 4 180 0.0 0.0 0.00 0.00 0.00 92 975.5
20260506044508 4 180 0.0 0.0 0.00 0.00 0.00 92 975.5
20260506044008 4 180 0.0 0.0 0.00 0.00 0.00 93 975.5
20260506043508 5 180 0.0 0.0 0.00 0.00 0.00 93 975.6
20260506043008 5 180 0.0 0.0 0.00 0.00 0.00 92 975.6
20260506042508 5 180 0.0 0.0 0.00 0.00 0.00 92 975.3
20260506041508 5 180 0.0 0.0 0.00 0.00 0.00 92 975.3
20260506041008 5 180 0.0 0.0 0.00 0.00 0.00 91 975.3
20260506040508 5 163 0.0 0.0 0.00 0.00 0.00 91 975.3
20260506040008 5 180 0.0 0.0 0.00 0.00 0.00 92 975.2
20260506035008 5 180 0.0 0.0 0.00 0.00 0.00 92 975.2
20260506034509 5 180 0.0 0.0 0.00 0.00 0.00 91 975.2
20260506034009 4 158 0.0 0.0 0.00 0.00 0.00 91 975.2
20260506033509 4 180 0.0 0.0 0.00 0.00 0.00 91 975.0
20260506033009 4 180 0.0 0.0 0.00 0.00 0.00 89 975.0
20260506032008 4 180 0.0 0.0 0.00 0.00 0.00 89 975.1
20260506031009 4 180 0.0 0.0 0.00 0.00 0.00 89 975.2
20260506030508 4 180 0.0 0.0 0.00 0.00 0.00 90 975.2
20260506030008 4 180 0.0 0.0 0.00 0.00 0.00 89 975.4
20260506025508 4 180 0.0 0.0 0.00 0.00 0.00 89 975.4
20260506025008 4 180 0.0 0.0 0.00 0.00 0.00 88 975.5
20260506024008 4 180 0.0 0.0 0.00 0.00 0.00 88 975.5
20260506023508 4 180 0.0 0.0 0.00 0.00 0.00 86 975.5
20260506023009 4 180 0.0 0.0 0.00 0.00 0.00 86 975.5
20260506022508 4 180 0.0 0.0 0.00 0.00 0.00 86 975.3
20260506022008 4 180 0.0 0.0 0.00 0.00 0.00 87 975.3
20260506021508 4 167 0.0 0.0 0.00 0.00 0.00 87 975.3
20260506020508 5 180 0.0 0.0 0.00 0.00 0.00 87 975.1
20260506015508 5 180 0.0 0.0 0.00 0.00 0.00 86 975.2
20260506015008 5 180 0.0 0.0 0.00 0.00 0.00 87 975.0
20260506014508 5 180 0.0 0.0 0.00 0.00 0.00 86 974.9
20260506013508 5 180 0.0 0.0 0.00 0.00 0.00 86 974.7
20260506012508 5 180 0.0 0.0 0.00 0.00 0.00 83 974.7
20260506012008 5 180 0.0 0.0 0.00 0.00 0.00 83 974.7
20260506011508 5 180 0.0 0.0 0.00 0.00 0.00 83 974.7
20260506011008 5 180 0.0 0.0 0.00 0.00 0.00 82 974.5
20260506010508 6 180 0.0 0.0 0.00 0.00 0.00 82 974.5
20260506010008 6 202 0.0 0.0 0.00 0.00 0.00 79 974.5
20260506005509 6 202 0.0 0.0 0.00 0.00 0.00 78 974.5
20260506005008 6 202 0.0 0.0 0.00 0.00 0.00 77 974.4
20260506004508 6 202 0.0 0.0 0.00 0.00 0.00 76 974.4
20260506004008 6 202 0.0 0.0 0.00 0.00 0.00 76 974.4
20260506003507 7 202 0.0 0.0 0.00 0.00 0.00 74 974.2
20260506003008 7 202 0.0 0.0 0.00 0.00 0.00 73 974.2
20260506002508 7 253 0.0 0.0 0.00 0.00 0.00 72 974.2
20260506001508 7 269 1.6 3.2 0.00 0.00 0.00 71 974.2
20260506000508 7 270 0.0 3.2 0.00 0.00 0.00 70 974.2
20260506000008 8 280 0.0 3.2 0.00 0.00 0.00 69 974.3
20260505234008 8 328 3.2 3.2 0.00 0.00 0.00 67 974.3
20260505233508 8 286 3.2 4.8 0.00 0.00 0.00 66 974.3
20260505232508 9 271 3.2 3.2 0.00 0.00 0.00 66 974.1
20260505231508 9 301 1.6 4.8 0.00 0.00 0.00 65 974.1
20260505231008 9 328 3.2 4.8 0.00 0.00 0.00 66 974.2
20260505230504 9 301 3.2 4.8 0.00 0.00 0.00 65 974.2
20260505225510 10 348 3.2 4.8 0.00 0.00 0.00 63 974.3
20260505225008 10 310 3.2 8.0 0.00 0.00 0.00 64 974.2
20260505224508 10 305 3.2 8.0 0.00 0.00 0.00 63 974.2
20260505224008 10 328 4.8 8.0 0.00 0.00 0.00 62 974.2
20260505223508 10 283 3.2 8.0 0.00 0.00 0.00 63 974.4
20260505222508 10 312 3.2 11.3 0.00 0.00 0.00 64 974.0
20260505222008 10 288 4.8 11.3 0.00 0.00 0.00 61 974.0
20260505221508 10 314 6.4 11.3 0.00 0.00 0.00 61 974.0
20260505220508 10 297 4.8 9.7 0.00 0.00 0.00 60 974.1
20260505220008 11 199 3.2 4.8 0.00 0.00 0.00 60 973.9
20260505215508 10 320 3.2 4.8 0.00 0.00 0.00 61 973.9
20260505215008 10 302 3.2 8.0 0.00 0.00 0.00 63 974.0
20260505214507 10 303 4.8 8.0 0.00 0.00 0.00 62 974.0
20260505214008 10 332 4.8 8.0 0.00 0.00 0.00 62 974.0
20260505213008 10 296 3.2 4.8 0.00 0.00 0.00 63 973.9
20260505212508 10 291 4.8 4.8 0.00 0.00 0.00 63 973.9
20260505212008 10 13 3.2 8.0 0.00 0.00 0.00 64 973.9
20260505211007 10 317 3.2 4.8 0.00 0.00 0.00 66 974.0
20260505210508 10 281 3.2 8.0 0.00 0.00 0.00 65 974.0
20260505205508 10 303 3.2 4.8 0.00 0.00 0.00 66 973.9
20260505205008 10 315 4.8 8.0 0.00 0.00 0.00 65 973.8
20260505204008 10 303 4.8 8.0 0.00 0.00 0.00 66 973.8
20260505203008 10 233 3.2 9.7 0.00 0.00 0.00 66 973.4
20260505202507 10 317 3.2 4.8 0.00 0.00 0.00 65 973.3
20260505202007 10 303 3.2 9.7 0.00 0.00 0.00 66 973.3
20260505201508 10 306 1.6 9.7 0.00 0.00 0.00 67 973.3
20260505201008 10 310 4.8 9.7 0.00 0.00 0.00 66 973.2
20260505200008 9 269 3.2 4.8 0.00 0.00 0.00 68 973.2
20260505195508 9 341 3.2 4.8 0.00 0.00 0.00 68 973.2
20260505195007 9 259 3.2 4.8 0.00 0.00 0.00 67 973.2
20260505194508 9 303 4.8 4.8 0.00 0.00 0.00 66 973.2
20260505194008 9 324 3.2 8.0 0.00 0.00 0.00 68 973.2
20260505193508 9 233 3.2 8.0 0.00 0.00 0.00 68 973.3
20260505193009 9 356 3.2 8.0 0.00 0.00 0.00 67 973.3
20260505192507 9 293 0.0 9.7 0.00 0.00 0.00 67 972.8
20260505192008 9 305 4.8 9.7 0.00 0.00 0.00 67 972.8
20260505191008 9 297 4.8 8.0 0.00 0.00 0.00 67 972.7
20260505190508 9 304 4.8 8.0 0.00 0.00 0.00 69 972.7
20260505190007 9 325 4.8 8.0 0.00 0.00 0.00 68 972.7
20260505185507 10 199 4.8 8.0 0.00 0.00 0.00 67 972.7
20260505185007 9 302 3.2 8.0 0.00 0.00 0.00 69 972.4
20260505184507 9 306 4.8 8.0 0.00 0.00 0.00 68 972.4
20260505183008 10 301 3.2 4.8 0.00 0.00 0.00 66 972.1
20260505182008 10 324 4.8 8.0 0.00 0.00 0.00 63 972.0
20260505181507 9 324 4.8 8.0 0.00 0.00 0.00 64 972.0
20260505181007 9 330 4.8 9.7 0.00 0.00 0.00 63 972.1
20260505180507 9 278 4.8 9.7 0.00 0.00 0.00 63 972.1
20260505180007 9 320 4.8 9.7 0.00 0.00 0.00 64 972.2
20260505175507 9 344 4.8 9.7 0.00 0.00 0.00 65 972.2
20260505174509 9 289 4.8 11.3 0.00 0.00 0.00 64 971.9
20260505174007 9 306 3.2 11.3 0.00 0.00 0.00 65 971.9
20260505173508 9 274 4.8 11.3 0.00 0.00 0.00 63 971.5
20260505173008 9 258 4.8 9.7 0.00 0.00 0.00 64 971.5
20260505172508 10 287 3.2 8.0 0.00 0.00 0.00 64 971.4
20260505172008 9 292 4.8 8.0 0.00 0.00 0.00 63 971.4
20260505171507 10 296 4.8 8.0 0.00 0.00 0.00 63 971.4
20260505171008 10 282 3.2 9.7 0.00 0.00 0.00 63 971.3
20260505170507 10 301 3.2 9.7 0.00 0.00 0.00 63 971.3
20260505165507 10 270 3.2 8.0 0.00 0.00 0.00 67 971.2
20260505165008 10 326 4.8 8.0 0.00 0.00 0.00 68 971.2
20260505164507 9 315 4.8 8.0 0.00 0.00 0.00 69 971.2
20260505164007 9 289 4.8 8.0 0.00 0.00 0.00 69 971.2
20260505163507 9 318 6.4 8.0 0.00 0.00 0.00 67 971.2
20260505163009 10 352 4.8 9.7 0.00 0.00 0.00 69 971.2
20260505162508 9 284 4.8 9.7 0.00 0.00 0.00 69 971.0
20260505162007 9 286 3.2 8.0 0.00 0.00 0.00 71 971.0
20260505161507 9 302 4.8 9.7 0.00 0.00 0.00 70 971.0
20260505161007 10 327 4.8 9.7 0.00 0.00 0.00 70 970.9
20260505160507 9 328 4.8 9.7 0.00 0.00 0.00 71 970.9
20260505153007 10 289 4.8 9.7 0.00 0.00 0.00 73 969.9
20260505152508 10 275 4.8 9.7 0.00 0.00 0.00 73 969.4
20260505152007 11 315 4.8 9.7 0.00 0.00 0.00 72 969.4
20260505151507 10 296 4.8 8.0 0.00 0.00 0.00 72 969.4
20260505150507 11 295 6.4 11.3 0.00 0.00 0.00 73 969.2
20260505140507 9 327 4.8 8.0 0.00 0.00 0.00 82 968.2
20260505125007 9 301 4.8 8.0 0.00 0.00 0.00 87 967.1
20260505124508 9 306 4.8 8.0 0.00 0.00 0.00 87 967.0
20260505122507 10 300 4.8 8.0 0.00 0.00 0.00 86 966.3
20260505122007 10 291 1.6 8.0 0.00 0.00 0.00 87 966.3